Location: Kellogg
(38.0159°N, 90.0546°W)
Time: 02:24:46
(UTC+00:00)

Transit 2A - Pass Details

Date: 16 September 2024
Orbit: 590 x 960 km, 66.7° (Epoch: 09 October)

Event Time Altitude Azimuth Distance (km) Brightness Sun altitude
Rises 07:38:30 0° 343° (NNW) 3,639 9.9 -43.0°
Reaches altitude 10° 07:42:11 10° 3° (N) 2,663 9.2 -42.6°
Maximum altitude 07:46:02 17° 42° (NE) 2,169 8.8 -42.1°
Drops below altitude 10° 07:49:45 10° 80° (E) 2,551 9.1 -41.7°
Sets 07:53:08 0° 101° (E) 3,418 9.7 -41.2°
